DW9565 Weather Reports


Display with metric or nautical units.
time (UTC)temp
F
wind
direction
speed
MPH
gust
MPH
rain 1hr
in
rain 24hr
in
rain mn
in
humidity
%
barometer
mb
20260505220046 43 347 19.0 29.0 0.00 0.00 0.00 41 1018.9
20260505214553 42 308 16.0 26.0 0.00 0.00 0.00 40 1019.0
20260505213043 43 334 18.0 27.0 0.00 0.00 0.00 41 1019.0
20260505211548 43 317 15.0 26.0 0.00 0.00 0.00 42 1019.3
20260505210040 42 355 15.0 22.0 0.00 0.00 0.00 43 1019.4
20260505204539 43 342 15.0 21.0 0.00 0.00 0.00 43 1019.5
20260505203050 42 347 16.0 26.0 0.00 0.00 0.00 42 1019.6
20260505201537 41 331 15.0 23.0 0.00 0.00 0.00 47 1019.7
20260505200039 41 312 12.0 21.0 0.00 0.00 0.00 46 1019.6
20260505194541 41 330 14.0 26.0 0.00 0.00 0.00 48 1019.7
20260505193036 40 327 15.0 23.0 0.00 0.00 0.00 47 1019.7
20260505191543 40 355 16.0 27.0 0.00 0.00 0.00 49 1019.6
20260505190035 40 344 16.0 27.0 0.00 0.00 0.00 49 1019.6
20260505184545 39 301 15.0 28.0 0.00 0.00 0.00 50 1019.6
20260505183040 41 336 15.0 24.0 0.00 0.00 0.00 50 1019.6
20260505181532 40 17 14.0 24.0 0.00 0.00 0.00 53 1019.6
20260505180035 39 342 16.0 24.0 0.00 0.00 0.00 52 1019.6
20260505174534 40 315 19.0 24.0 0.00 0.00 0.00 50 1019.7
20260505173033 38 298 13.0 24.0 0.00 0.00 0.00 55 1019.8
20260505171531 40 345 14.0 23.0 0.00 0.00 0.00 53 1019.6
20260505170037 39 340 17.0 25.0 0.00 0.00 0.00 54 1019.6
20260505164535 39 340 17.0 24.0 0.00 0.00 0.00 56 1019.6
20260505163033 36 308 17.0 23.0 0.00 0.00 0.00 60 1019.5
20260505161530 37 330 13.0 21.0 0.00 0.00 0.00 60 1019.6
20260505153027 36 327 10.0 16.0 0.00 0.00 0.00 69 1019.6
20260505151533 34 327 9.0 14.0 0.00 0.00 0.00 76 1019.6
20260505124514 32 315 7.0 11.0 0.00 0.00 0.00 76 1019.2
20260505123011 32 311 7.0 10.0 0.00 0.00 0.00 75 1019.0
20260505121510 32 294 6.0 11.0 0.00 0.00 0.00 76 1019.0
20260505120015 33 294 7.0 10.0 0.00 0.00 0.00 76 1018.9
20260505114511 33 292 7.0 10.0 0.00 0.00 0.00 73 1019.1
20260505113007 33 285 7.0 10.0 0.00 0.00 0.00 72 1019.1
20260505111519 33 284 7.0 9.0 0.00 0.00 0.00 71 1019.1
20260505101511 33 313 4.0 9.0 0.00 0.00 0.00 70 1019.0
20260505100008 33 312 5.0 9.0 0.00 0.00 0.00 71 1018.9
20260505094502 34 329 5.0 12.0 0.00 0.00 0.00 67 1019.0
20260505093002 34 314 4.0 9.0 0.00 0.00 0.00 64 1018.9
20260505091611 34 325 5.0 10.0 0.00 0.00 0.00 63 1018.8
20260505084605 35 311 3.0 6.0 0.00 0.00 0.00 60 1018.7
20260505083106 35 314 3.0 5.0 0.00 0.00 0.00 60 1018.8
20260505081555 35 311 4.0 6.0 0.00 0.00 0.00 60 1018.7
20260505080055 35 321 3.0 5.0 0.00 0.00 0.00 60 1018.7
20260505074554 36 325 2.0 5.0 0.00 0.00 0.00 60 1018.4
20260505073056 36 360 2.0 4.0 0.00 0.00 0.00 61 1018.4
20260505071554 35 360 2.0 4.0 0.00 0.00 0.00 60 1018.6
20260505070105 36 360 3.0 8.0 0.00 0.00 0.00 59 1018.8
20260505064557 37 323 1.0 5.0 0.00 0.00 0.00 58 1018.3
20260505063054 36 349 6.0 11.0 0.00 0.00 0.00 57 1018.6
20260505061612 37 18 2.0 4.0 0.00 0.00 0.00 58 1018.4
20260505060051 37 61 0.0 3.0 0.00 0.00 0.00 58 1018.4
20260505054548 37 61 3.0 9.0 0.00 0.00 0.00 57 1018.3
20260505053043 36 36 3.0 6.0 0.00 0.00 0.00 59 1018.3
20260505051544 36 37 3.0 5.0 0.00 0.00 0.00 59 1018.4
20260505041540 36 37 2.0 3.0 0.00 0.00 0.00 59 1017.7
20260505040056 36 36 4.0 6.0 0.00 0.00 0.00 58 1017.8
20260505034543 36 36 5.0 9.0 0.00 0.00 0.00 59 1017.8
20260505033038 36 36 5.0 8.0 0.00 0.00 0.00 58 1017.7
20260505031546 37 22 5.0 10.0 0.00 0.00 0.00 58 1017.5
20260505030034 38 34 10.0 15.0 0.00 0.00 0.00 56 1017.1
20260505024532 39 19 10.0 15.0 0.00 0.00 0.00 55 1017.1
20260505023031 40 24 10.0 16.0 0.00 0.00 0.00 52 1017.1
20260505021533 41 12 12.0 18.0 0.00 0.00 0.00 50 1017.0
20260505020039 42 355 12.0 20.0 0.00 0.00 0.00 48 1016.8
20260505014531 43 20 17.0 27.0 0.00 0.00 0.00 46 1016.8
20260505013030 44 22 16.0 25.0 0.00 0.00 0.00 44 1016.7
20260505011529 46 360 19.0 28.0 0.00 0.00 0.00 37 1016.4
20260505010031 47 355 19.0 26.0 0.00 0.00 0.00 35 1016.3
20260505004529 48 346 16.0 26.0 0.00 0.00 0.00 32 1016.2
20260505003029 48 339 21.0 28.0 0.00 0.00 0.00 30 1016.2
20260505001529 49 328 24.0 32.0 0.00 0.00 0.00 28 1016.1
20260505000042 49 344 16.0 27.0 0.00 0.00 0.00 28 1016.2
20260504234528 49 298 18.0 34.0 0.00 0.00 0.00 25 1016.0
20260504233027 49 296 19.0 30.0 0.00 0.00 0.00 26 1016.0
20260504231526 50 331 16.0 28.0 0.00 0.00 0.00 26 1016.0
20260504230027 50 330 19.0 32.0 0.00 0.00 0.00 26 1016.1
20260504224526 49 319 22.0 32.0 0.00 0.00 0.00 29 1016.1
20260504223026 49 346 21.0 32.0 0.00 0.00 0.00 30 1016.3
20260504221527 49 325 20.0 31.0 0.00 0.00 0.00 30 1016.0